Date,TemperatureHighF,TemperatureAvgF,TemperatureLowF,DewpointHighF,DewpointAvgF,DewpointLowF,HumidityHigh,HumidityAvg,HumidityLow,PressureMaxIn,PressureMinIn,WindSpeedMaxMPH,WindSpeedAvgMPH,GustSpeedMaxMPH,PrecipitationSumIn
2013-2-1,13,8,0,1,-2,-6,75,64,55,29.98,29.19,24,4,28,0.00
2013-2-2,9,0,-6,-4,-7,-12,85,71,49,30.15,29.98,8,1,10,0.00
2013-2-3,19,13,-4,10,7,-7,85,77,65,30.15,29.78,7,1,9,0.00
2013-2-4,20,14,5,13,6,-6,87,72,51,29.78,29.44,18,4,22,0.00
2013-2-5,8,0,-5,-6,-10,-16,82,61,46,30.01,29.63,15,2,18,0.00
2013-2-6,20,6,-4,17,2,-9,90,81,73,30.23,29.85,12,2,15,0.00
2013-2-7,-1,-9,-21,-9,-18,-25,82,66,48,30.66,30.23,16,3,18,0.00
2013-2-8,7,-6,-24,-4,-13,-29,84,71,57,30.68,30.38,6,0,6,0.00
2013-2-9,12,9,4,8,2,-5,84,72,61,30.38,30.15,19,5,21,0.00
2013-2-10,26,13,-2,4,1,-5,85,61,29,30.33,30.18,19,3,19,0.00
2013-2-11,28,14,-6,27,9,-9,95,82,46,30.30,29.57,14,1,15,0.00
2013-2-12,35,31,27,33,29,26,97,91,85,29.62,29.42,12,2,15,0.16
2013-2-13,30,28,25,26,24,22,92,85,76,29.77,29.62,8,1,9,0.01
2013-2-14,33,21,9,23,17,6,93,84,63,29.97,29.75,8,1,9,0.00
2013-2-15,31,23,13,29,21,11,96,90,74,29.99,29.88,9,1,11,0.01
2013-2-16,33,27,22,27,21,12,97,79,60,29.95,29.86,10,1,12,0.01
2013-2-17,21,16,12,14,11,8,88,82,71,29.87,29.15,25,7,30,0.00
2013-2-18,24,18,12,13,10,5,82,71,61,29.86,29.17,27,7,31,0.00
2013-2-19,36,24,13,19,14,8,81,66,46,30.05,29.79,13,2,13,0.01
2013-2-20,32,29,27,31,27,18,98,93,67,29.79,29.36,17,3,20,0.01
2013-2-21,33,30,27,31,27,23,97,91,83,30.24,29.48,19,3,23,0.11
2013-2-22,31,24,8,24,19,6,91,82,71,30.43,30.23,10,2,12,0.05
2013-2-23,26,16,-1,24,14,-4,94,88,82,30.40,30.09,11,1,11,0.00
2013-2-24,29,25,21,26,22,20,95,91,85,30.09,29.91,9,2,12,0.05
2013-2-25,38,23,9,24,18,6,95,81,44,30.25,29.97,5,0,5,0.21
2013-2-26,40,18,-2,27,14,-4,94,83,53,30.39,30.25,6,-3,6,0.02
2013-2-27,40,22,3,25,15,0,92,76,40,30.34,29.98,11,1,13,0.00
2013-2-28,30,28,26,28,24,20,96,86,66,29.98,29.73,15,2,15,0.03